Regional Weather Roundup
Issued by NWS

Home | Current Version | Previous Version | Text Only | Print | Product List | Glossary On
Versions: 1 2 3 4 5 6 7 8 9 10 11 12 13 14 15 16 17 18 19 20 21 22 23 24 25 26 27 28 29 30 31 32 33 34 35 36 37 38 39 40 41 42 43 44 45 46 47 48 49 50
000
ASUS43 KTOP 171908
RWRKS

WEATHER ROUNDUP FOR KANSAS
NATIONAL WEATHER SERVICE GOODLAND KS
100 PM CST SUN DEC 17 2017

NOTE:  "FAIR" INDICATES FEW OR NO CLOUDS BELOW 12,000 FEET WITH NO
SIGNIFICANT WEATHER AND/OR OBSTRUCTIONS TO VISIBILITY.

KSZ001>006-013>018-027>032-041>047-172000-
NORTHWEST KANSAS

CITY           SKY/WX    TMP DP  RH WIND       PRES   REMARKS
GOODLAND       CLOUDY    37  29  72 N12       29.98F WCI  29
HAYS           SUNNY     42  28  57 NW10      29.99F
HILL CITY      MOSUNNY   42  31  64 N15       30.00F
RUSSELL        SUNNY     45  31  58 N10       29.97F
$$

KSZ061>065-074>080-084>089-172000-
SOUTHWEST KANSAS

CITY           SKY/WX    TMP DP  RH WIND       PRES   REMARKS
DODGE CITY     SUNNY     43  29  57 N12       29.99F
ELKHART        MOSUNNY   43  32  65 N15G22    30.01F
GARDEN CITY    MOSUNNY   41  28  60 N16       30.00F
GREAT BEND     SUNNY     44  29  55 NW12      29.97F
LIBERAL        SUNNY     44  29  55 NW12G21   30.01F
PRATT          SUNNY     46  30  54 NW12      29.97F
$$

KSZ066>073-081>083-090>101-172000-
SOUTHEAST KANSAS

CITY           SKY/WX    TMP DP  RH WIND       PRES   REMARKS
CHANUTE        CLOUDY    46  44  93 S9        30.02S
COFFEYVILLE    CLOUDY    46  45  96 S7        30.04F FOG
HUTCHINSON     SUNNY     50  40  68 CALM      29.96F
MEDICINE LODGE   N/A     49  34  56 W7        29.98F
NEWTON         PTSUNNY   51  42  71 W7        29.98S
PARSONS        CLOUDY    46  45  96 S7        30.04F
WICHITA INTL   PTSUNNY   47  40  76 S3        29.98F
WICHITA JABRA  CLOUDY    48  41  76 SW5       29.98F
WICHITA MCCONL CLOUDY    47  39  76 SW5       29.98S
WINFIELD       CLOUDY    47  42  83 S7        30.02S
$$

KSZ007>012-019>026-033>040-048>060-102>105-172000-
NORTHEAST KANSAS

CITY           SKY/WX    TMP DP  RH WIND       PRES   REMARKS
CONCORDIA      SUNNY     43  33  68 NW10      29.95F
EMPORIA        SUNNY     50  40  68 W7        29.97F
LAWRENCE       CLOUDY    48  44  86 W8        29.97F
MANHATTAN      MOSUNNY   53  41  63 VRB6      29.95F
MARYSVILLE     CLOUDY    41  37  87 N6        29.97F
OLATHE IND     CLOUDY    47  44  90 SW8       29.98F
OLATHE EXE     CLOUDY    46  42  86 SW6       29.97F
SALINA         SUNNY     50  38  63 NW6       29.97F
TOPEKA BILLARD PTSUNNY   50  45  83 W5        29.96F
TOPEKA FORBES  PTSUNNY   50  44  80 NW7       29.95F
$$



USA.gov is the U.S. government's official web portal to all federal, state and local government web resources and services.